World > North America > United States > Ohio   City of Toledo, OH

Toledo, Ohio Regional Weather

Lat: 41.66N, Lon: 83.58W
Wx Zone: OHZ003Web Search

If you are on your PC, you can easily pass this page to your phone by scanning the QR Code near the bottom with your camera.

Feedback


°F Click to change Toledo hourly weather to Imperial units.Click to change Toledo hourly weather to Metric units. °C
Toledo Weather Map
UTC Time: 5/6/2021, 12:43
Your Time:

Toledo, OH Regional Weather

Expires:202105061300;;682763
ASUS41 KCLE 061212
RWRCLE
OHIO REGIONAL WEATHER ROUNDUP
NATIONAL WEATHER SERVICE WILMINGTON, OH
800 AM EDT THU MAY 06 2021

NOTE: "FAIR" INDICATES FEW OR NO CLOUDS BELOW 12,000 FEET WITH NO
SIGNIFICANT WEATHER AND/OR OBSTRUCTIONS TO VISIBILITY.


OHZ001>008-015>018-024>027-034-035-043-044-061300-
   NORTHWEST OHIO
  
CITY           SKY/WX    TMP DP  RH WIND       PRES   REMARKS
DEFIANCE       CLOUDY    46  36  68 NE5       30.14R                  
FINDLAY        FAIR      43  39  86 CALM      30.14R                  
TOLEDO EXPRESS CLOUDY    47  37  68 CALM      30.14R                  
TOLEDO EXEC    CLOUDY    48  41  76 E3        30.14R                  
LIMA           FAIR      42  37  82 CALM      30.13S                  
$$
 

SKY/WX - Weather  TMP - Temperature  DP - Dew Point  RH - Relative Humidity
WIND - Wind Direction/Speed PRES - Barometric Pressure VSB - Visibility
WCI - Wind Chill Index E13G22 Wind - East Wind 13 mph/Gusts of 22 mph